Year,Month,Day,Hour,Minute,Value (Times are PST for temperature in C)
2021,04,18,00,00,12.50
2021,04,18,00,01,12.60
2021,04,18,00,02,12.60
2021,04,18,00,03,12.70
2021,04,18,00,04,12.70
2021,04,18,00,05,12.70
2021,04,18,00,06,12.70
2021,04,18,00,07,12.70
2021,04,18,00,08,12.60
2021,04,18,00,09,12.50
2021,04,18,00,10,12.40
2021,04,18,00,11,12.40
2021,04,18,00,12,12.20
2021,04,18,00,13,12.10
2021,04,18,00,14,12.10
2021,04,18,00,15,12.00
2021,04,18,00,16,11.90
2021,04,18,00,17,11.90
2021,04,18,00,18,11.90
2021,04,18,00,19,11.80
2021,04,18,00,20,11.80
2021,04,18,00,21,11.90
2021,04,18,00,22,12.00
2021,04,18,00,23,12.10
2021,04,18,00,24,12.20
2021,04,18,00,25,12.20
2021,04,18,00,26,12.30
2021,04,18,00,27,12.30
2021,04,18,00,28,12.40
2021,04,18,00,29,12.50
2021,04,18,00,30,12.50
2021,04,18,00,31,12.60
2021,04,18,00,32,12.50
2021,04,18,00,33,12.40
2021,04,18,00,34,12.30
2021,04,18,00,35,12.20
2021,04,18,00,36,12.00
2021,04,18,00,37,11.90
2021,04,18,00,38,11.80
2021,04,18,00,39,11.70
2021,04,18,00,40,11.60
2021,04,18,00,41,11.60
2021,04,18,00,42,11.50
2021,04,18,00,43,11.50
2021,04,18,00,44,11.40
2021,04,18,00,45,11.40
2021,04,18,00,46,11.30
2021,04,18,00,47,11.30
2021,04,18,00,48,11.30
2021,04,18,00,49,11.30
2021,04,18,00,50,11.30
2021,04,18,00,51,11.40
2021,04,18,00,52,11.40
2021,04,18,00,53,11.40
2021,04,18,00,54,11.50
2021,04,18,00,55,11.50
2021,04,18,00,56,11.50
2021,04,18,00,57,11.50
2021,04,18,00,58,11.50
2021,04,18,00,59,11.50
2021,04,18,01,00,11.50
2021,04,18,01,01,11.40
2021,04,18,01,02,11.40
2021,04,18,01,03,11.30
2021,04,18,01,04,11.30
2021,04,18,01,05,11.30
2021,04,18,01,06,11.30
2021,04,18,01,07,11.30
2021,04,18,01,08,11.30
2021,04,18,01,09,11.30
2021,04,18,01,10,11.30
2021,04,18,01,11,11.30
2021,04,18,01,12,11.30
2021,04,18,01,13,11.30
2021,04,18,01,14,11.20
2021,04,18,01,15,11.20
2021,04,18,01,16,11.20
2021,04,18,01,17,11.10
2021,04,18,01,18,11.10
2021,04,18,01,19,11.00
2021,04,18,01,20,11.00
2021,04,18,01,21,10.90
2021,04,18,01,22,10.90
2021,04,18,01,23,10.80
2021,04,18,01,24,10.80
2021,04,18,01,25,10.80
2021,04,18,01,26,10.80
2021,04,18,01,27,10.70
2021,04,18,01,28,10.70
2021,04,18,01,29,10.70
2021,04,18,01,30,10.60
2021,04,18,01,31,10.60
2021,04,18,01,32,10.60
2021,04,18,01,33,10.50
2021,04,18,01,34,10.50
2021,04,18,01,35,10.40
2021,04,18,01,36,10.40
2021,04,18,01,37,10.30
2021,04,18,01,38,10.30
2021,04,18,01,39,10.30
2021,04,18,01,40,10.30
2021,04,18,01,41,10.30
2021,04,18,01,42,10.30
2021,04,18,01,43,10.30
2021,04,18,01,44,10.30
2021,04,18,01,45,10.20
2021,04,18,01,46,10.30
2021,04,18,01,47,10.30
2021,04,18,01,48,10.30
2021,04,18,01,49,10.30
2021,04,18,01,50,10.30
2021,04,18,01,51,10.30
2021,04,18,01,52,10.20
2021,04,18,01,53,10.10
2021,04,18,01,54,10.00
2021,04,18,01,55,10.00
2021,04,18,01,56,9.90
2021,04,18,01,57,9.90
2021,04,18,01,58,9.90
2021,04,18,01,59,9.80
2021,04,18,02,00,9.70
2021,04,18,02,01,9.70
2021,04,18,02,02,9.70
2021,04,18,02,03,9.70
2021,04,18,02,04,9.60
2021,04,18,02,05,9.60
2021,04,18,02,06,9.70
2021,04,18,02,07,9.70
2021,04,18,02,08,9.80
2021,04,18,02,09,9.80
2021,04,18,02,10,9.80
2021,04,18,02,11,9.80
2021,04,18,02,12,9.80
2021,04,18,02,13,9.80
2021,04,18,02,14,9.90
2021,04,18,02,15,9.90
2021,04,18,02,16,9.90
2021,04,18,02,17,10.00
2021,04,18,02,18,10.10
2021,04,18,02,19,10.10
2021,04,18,02,20,10.10
2021,04,18,02,21,10.10
2021,04,18,02,22,10.10
2021,04,18,02,23,10.10
2021,04,18,02,24,10.10
2021,04,18,02,25,10.20
2021,04,18,02,26,10.20
2021,04,18,02,27,10.30
2021,04,18,02,28,10.30
2021,04,18,02,29,10.40
2021,04,18,02,30,10.40
2021,04,18,02,31,10.30
2021,04,18,02,32,10.30
2021,04,18,02,33,10.20
2021,04,18,02,34,10.20
2021,04,18,02,35,10.10
2021,04,18,02,36,10.10
2021,04,18,02,37,10.10
2021,04,18,02,38,10.00
2021,04,18,02,39,10.00
2021,04,18,02,40,9.90
2021,04,18,02,41,9.90
2021,04,18,02,42,9.90
2021,04,18,02,43,9.90
2021,04,18,02,44,9.90
2021,04,18,02,45,9.90
2021,04,18,02,46,10.00
2021,04,18,02,47,10.00
2021,04,18,02,48,10.00
2021,04,18,02,49,10.10
2021,04,18,02,50,10.10
2021,04,18,02,51,10.20
2021,04,18,02,52,10.20
2021,04,18,02,53,10.10
2021,04,18,02,54,10.10
2021,04,18,02,55,10.10
2021,04,18,02,56,10.00
2021,04,18,02,57,10.00
2021,04,18,02,58,9.90
2021,04,18,02,59,9.80
2021,04,18,03,00,9.70
2021,04,18,03,01,9.60
2021,04,18,03,02,9.50
2021,04,18,03,03,9.50
2021,04,18,03,04,9.40
2021,04,18,03,05,9.40
2021,04,18,03,06,9.40
2021,04,18,03,07,9.50
2021,04,18,03,08,9.60
2021,04,18,03,09,9.60
2021,04,18,03,10,9.70
2021,04,18,03,11,9.70
2021,04,18,03,12,9.70
2021,04,18,03,13,9.60
2021,04,18,03,14,9.60
2021,04,18,03,15,9.60
2021,04,18,03,16,9.60
2021,04,18,03,17,9.60
2021,04,18,03,18,9.60
2021,04,18,03,19,9.60
2021,04,18,03,20,9.60
2021,04,18,03,21,9.60
2021,04,18,03,22,9.60
2021,04,18,03,23,9.60
2021,04,18,03,24,9.50
2021,04,18,03,25,9.50
2021,04,18,03,26,9.50
2021,04,18,03,27,9.50
2021,04,18,03,28,9.50
2021,04,18,03,29,9.50
2021,04,18,03,30,9.50
2021,04,18,03,31,9.40
2021,04,18,03,32,9.40
2021,04,18,03,33,9.40
2021,04,18,03,34,9.50
2021,04,18,03,35,9.50
2021,04,18,03,36,9.60
2021,04,18,03,37,9.60
2021,04,18,03,38,9.60
2021,04,18,03,39,9.50
2021,04,18,03,40,9.40
2021,04,18,03,41,9.40
2021,04,18,03,42,9.20
2021,04,18,03,43,9.10
2021,04,18,03,44,9.00
2021,04,18,03,45,8.90
2021,04,18,03,46,8.90
2021,04,18,03,47,8.80
2021,04,18,03,48,8.80
2021,04,18,03,49,8.80
2021,04,18,03,50,8.80
2021,04,18,03,51,8.80
2021,04,18,03,52,8.80
2021,04,18,03,53,8.80
2021,04,18,03,54,8.80
2021,04,18,03,55,8.80
2021,04,18,03,56,8.90
2021,04,18,03,57,8.90
2021,04,18,03,58,8.90
2021,04,18,03,59,9.00
2021,04,18,04,00,8.90
2021,04,18,04,01,8.90
2021,04,18,04,02,8.80
2021,04,18,04,03,8.70
2021,04,18,04,04,8.60
2021,04,18,04,05,8.60
2021,04,18,04,06,8.60
2021,04,18,04,07,8.70
2021,04,18,04,08,8.80
2021,04,18,04,09,8.80
2021,04,18,04,10,8.90
2021,04,18,04,11,8.90
2021,04,18,04,12,8.90
2021,04,18,04,13,8.90
2021,04,18,04,14,8.90
2021,04,18,04,15,8.90
2021,04,18,04,16,8.80
2021,04,18,04,17,8.80
2021,04,18,04,18,8.70
2021,04,18,04,19,8.60
2021,04,18,04,20,8.60
2021,04,18,04,21,8.50
2021,04,18,04,22,8.50
2021,04,18,04,23,8.40
2021,04,18,04,24,8.30
2021,04,18,04,25,8.30
2021,04,18,04,26,8.30
2021,04,18,04,27,8.30
2021,04,18,04,28,8.40
2021,04,18,04,29,8.50
2021,04,18,04,30,8.60
2021,04,18,04,31,8.60
2021,04,18,04,32,8.60
2021,04,18,04,33,8.60
2021,04,18,04,34,8.60
2021,04,18,04,35,8.70
2021,04,18,04,36,8.70
2021,04,18,04,37,8.80
2021,04,18,04,38,8.80
2021,04,18,04,39,8.80
2021,04,18,04,40,8.90
2021,04,18,04,41,8.80
2021,04,18,04,42,8.80
2021,04,18,04,43,8.80
2021,04,18,04,44,8.70
2021,04,18,04,45,8.70
2021,04,18,04,46,8.70
2021,04,18,04,47,8.70
2021,04,18,04,48,8.70
2021,04,18,04,49,8.60
2021,04,18,04,50,8.60
2021,04,18,04,51,8.50
2021,04,18,04,52,8.50
2021,04,18,04,53,8.50
2021,04,18,04,54,8.50
2021,04,18,04,55,8.50
2021,04,18,04,56,8.50
2021,04,18,04,57,8.50
2021,04,18,04,58,8.40
2021,04,18,04,59,8.30
2021,04,18,05,00,8.30
2021,04,18,05,01,8.20
2021,04,18,05,02,8.20
2021,04,18,05,03,8.30
2021,04,18,05,04,8.30
2021,04,18,05,05,8.30
2021,04,18,05,06,8.40
2021,04,18,05,07,8.40
2021,04,18,05,08,8.50
2021,04,18,05,09,8.50
2021,04,18,05,10,8.60
2021,04,18,05,11,8.60
2021,04,18,05,12,8.70
2021,04,18,05,13,8.70
2021,04,18,05,14,8.70
2021,04,18,05,15,8.70
2021,04,18,05,16,8.70
2021,04,18,05,17,8.70
2021,04,18,05,18,8.70
2021,04,18,05,19,8.70
2021,04,18,05,20,8.70
2021,04,18,05,21,8.70
2021,04,18,05,22,8.60
2021,04,18,05,23,8.60
2021,04,18,05,24,8.50
2021,04,18,05,25,8.50
2021,04,18,05,26,8.50
2021,04,18,05,27,8.50
2021,04,18,05,28,8.50
2021,04,18,05,29,8.60
2021,04,18,05,30,8.60
2021,04,18,05,31,8.60
2021,04,18,05,32,8.60
2021,04,18,05,33,8.50
2021,04,18,05,34,8.50
2021,04,18,05,35,8.40
2021,04,18,05,36,8.40
2021,04,18,05,37,8.40
2021,04,18,05,38,8.30
2021,04,18,05,39,8.30
2021,04,18,05,40,8.30
2021,04,18,05,41,8.30
2021,04,18,05,42,8.30
2021,04,18,05,43,8.20
2021,04,18,05,44,8.30
2021,04,18,05,45,8.30
2021,04,18,05,46,8.30
2021,04,18,05,47,8.30
2021,04,18,05,48,8.30
2021,04,18,05,49,8.20
2021,04,18,05,50,8.20
2021,04,18,05,51,8.10
2021,04,18,05,52,8.10
2021,04,18,05,53,8.00
2021,04,18,05,54,7.90
2021,04,18,05,55,7.90
2021,04,18,05,56,7.80
2021,04,18,05,57,7.80
2021,04,18,05,58,7.70
2021,04,18,05,59,7.70
2021,04,18,06,00,7.70
2021,04,18,06,01,7.60
2021,04,18,06,02,7.60
2021,04,18,06,03,7.60
2021,04,18,06,04,7.70
2021,04,18,06,05,7.70
2021,04,18,06,06,7.70
2021,04,18,06,07,7.70
2021,04,18,06,08,7.70
2021,04,18,06,09,7.60
2021,04,18,06,10,7.60
2021,04,18,06,11,7.60
2021,04,18,06,12,7.70
2021,04,18,06,13,7.70
2021,04,18,06,14,7.70
2021,04,18,06,15,7.80
2021,04,18,06,16,7.80
2021,04,18,06,17,7.90
2021,04,18,06,18,7.90
2021,04,18,06,19,8.00
2021,04,18,06,20,8.00
2021,04,18,06,21,8.10
2021,04,18,06,22,8.10
2021,04,18,06,23,8.20
2021,04,18,06,24,8.20
2021,04,18,06,25,8.20
2021,04,18,06,26,8.20
2021,04,18,06,27,8.20
2021,04,18,06,28,8.20
2021,04,18,06,29,8.10
2021,04,18,06,30,8.10
2021,04,18,06,31,8.10
2021,04,18,06,32,8.00
2021,04,18,06,33,8.00
2021,04,18,06,34,8.00
2021,04,18,06,35,8.00
2021,04,18,06,36,8.10
2021,04,18,06,37,8.10
2021,04,18,06,38,8.10
2021,04,18,06,39,8.10
2021,04,18,06,40,8.00
2021,04,18,06,41,8.00
2021,04,18,06,42,7.90
2021,04,18,06,43,7.90
2021,04,18,06,44,7.90
2021,04,18,06,45,7.90
2021,04,18,06,46,8.00
2021,04,18,06,47,8.10
2021,04,18,06,48,8.10
2021,04,18,06,49,8.10
2021,04,18,06,50,8.20
2021,04,18,06,51,8.20
2021,04,18,06,52,8.20
2021,04,18,06,53,8.30
2021,04,18,06,54,8.30
2021,04,18,06,55,8.30
2021,04,18,06,56,8.30
2021,04,18,06,57,8.30
2021,04,18,06,58,8.30
2021,04,18,06,59,8.30
2021,04,18,07,00,8.30
2021,04,18,07,01,8.30
2021,04,18,07,02,8.30
2021,04,18,07,03,8.30
2021,04,18,07,04,8.40
2021,04,18,07,05,8.40
2021,04,18,07,06,8.40
2021,04,18,07,07,8.50
2021,04,18,07,08,8.60
2021,04,18,07,09,8.70
2021,04,18,07,10,8.80
2021,04,18,07,11,8.90
2021,04,18,07,12,8.90
2021,04,18,07,13,8.90
2021,04,18,07,14,8.90
2021,04,18,07,15,8.90
2021,04,18,07,16,8.90
2021,04,18,07,17,8.90
2021,04,18,07,18,8.90
2021,04,18,07,19,8.90
2021,04,18,07,20,9.00
2021,04,18,07,21,9.00
2021,04,18,07,22,9.00
2021,04,18,07,23,9.00
2021,04,18,07,24,9.10
2021,04,18,07,25,9.10
2021,04,18,07,26,9.10
2021,04,18,07,27,9.20
2021,04,18,07,28,9.20
2021,04,18,07,29,9.20
2021,04,18,07,30,9.30
2021,04,18,07,31,9.30
2021,04,18,07,32,9.30
2021,04,18,07,33,9.30
2021,04,18,07,34,9.30
2021,04,18,07,35,9.40
2021,04,18,07,36,9.50
2021,04,18,07,37,9.60
2021,04,18,07,38,9.60
2021,04,18,07,39,9.70
2021,04,18,07,40,9.70
2021,04,18,07,41,9.80
2021,04,18,07,42,9.80
2021,04,18,07,43,9.90
2021,04,18,07,44,9.90
2021,04,18,07,45,10.00
2021,04,18,07,46,10.00
2021,04,18,07,47,10.10
2021,04,18,07,48,10.20
2021,04,18,07,49,10.20
2021,04,18,07,50,10.30
2021,04,18,07,51,10.30
2021,04,18,07,52,10.40
2021,04,18,07,53,10.40
2021,04,18,07,54,10.50
2021,04,18,07,55,10.60
2021,04,18,07,56,10.70
2021,04,18,07,57,10.90
2021,04,18,07,58,11.00
2021,04,18,07,59,11.20
2021,04,18,08,00,11.30
2021,04,18,08,01,11.50
2021,04,18,08,02,11.60
2021,04,18,08,03,11.70
2021,04,18,08,04,11.80
2021,04,18,08,05,11.90
2021,04,18,08,06,12.00
2021,04,18,08,07,12.20
2021,04,18,08,08,12.30
2021,04,18,08,09,12.30
2021,04,18,08,10,12.40
2021,04,18,08,11,12.40
2021,04,18,08,12,12.50
2021,04,18,08,13,12.50
2021,04,18,08,14,12.60
2021,04,18,08,15,12.70
2021,04,18,08,16,12.80
2021,04,18,08,17,12.90
2021,04,18,08,18,13.00
2021,04,18,08,19,13.20
2021,04,18,08,20,13.20
2021,04,18,08,21,13.20
2021,04,18,08,22,13.30
2021,04,18,08,23,13.30
2021,04,18,08,24,13.30
2021,04,18,08,25,13.30
2021,04,18,08,26,13.40
2021,04,18,08,27,13.40
2021,04,18,08,28,13.50
2021,04,18,08,29,13.50
2021,04,18,08,30,13.60
2021,04,18,08,31,13.70
2021,04,18,08,32,13.80
2021,04,18,08,33,13.80
2021,04,18,08,34,13.80
2021,04,18,08,35,13.80
2021,04,18,08,36,13.80
2021,04,18,08,37,13.90
2021,04,18,08,38,14.00
2021,04,18,08,39,14.10
2021,04,18,08,40,14.20
2021,04,18,08,41,14.20
2021,04,18,08,42,14.30
2021,04,18,08,43,14.30
2021,04,18,08,44,14.40
2021,04,18,08,45,14.40
2021,04,18,08,46,14.40
2021,04,18,08,47,14.40
2021,04,18,08,48,14.50
2021,04,18,08,49,14.50
2021,04,18,08,50,14.50
2021,04,18,08,51,14.40
2021,04,18,08,52,14.40
2021,04,18,08,53,14.30
2021,04,18,08,54,14.30
2021,04,18,08,55,14.30
2021,04,18,08,56,14.20
2021,04,18,08,57,14.20
2021,04,18,08,58,14.20
2021,04,18,08,59,14.10
2021,04,18,09,00,14.20
2021,04,18,09,01,14.10
2021,04,18,09,02,14.20
2021,04,18,09,03,14.20
2021,04,18,09,04,14.10
2021,04,18,09,05,14.10
2021,04,18,09,06,14.10
2021,04,18,09,07,14.10
2021,04,18,09,08,14.10
2021,04,18,09,09,14.20
2021,04,18,09,10,14.20
2021,04,18,09,11,14.30
2021,04,18,09,12,14.30
2021,04,18,09,13,14.30
2021,04,18,09,14,14.30
2021,04,18,09,15,14.40
2021,04,18,09,16,14.40
2021,04,18,09,17,14.40
2021,04,18,09,18,14.50
2021,04,18,09,19,14.50
2021,04,18,09,20,14.60
2021,04,18,09,21,14.70
2021,04,18,09,22,14.70
2021,04,18,09,23,14.80
2021,04,18,09,24,14.90
2021,04,18,09,25,15.00
2021,04,18,09,26,15.10
2021,04,18,09,27,15.10
2021,04,18,09,28,15.30
2021,04,18,09,29,15.40
2021,04,18,09,30,15.60
2021,04,18,09,31,15.70
2021,04,18,09,32,15.80
2021,04,18,09,33,15.90
2021,04,18,09,34,16.00
2021,04,18,09,35,16.00
2021,04,18,09,36,16.10
2021,04,18,09,37,16.10
2021,04,18,09,38,16.10
2021,04,18,09,39,16.00
2021,04,18,09,40,16.00
2021,04,18,09,41,16.00
2021,04,18,09,42,16.00
2021,04,18,09,43,16.10
2021,04,18,09,44,16.10
2021,04,18,09,45,16.20
2021,04,18,09,46,16.20
2021,04,18,09,47,16.30
2021,04,18,09,48,16.30
2021,04,18,09,49,16.40
2021,04,18,09,50,16.50
2021,04,18,09,51,16.70
2021,04,18,09,52,16.70
2021,04,18,09,53,16.80
2021,04,18,09,54,16.80
2021,04,18,09,55,16.80
2021,04,18,09,56,16.80
2021,04,18,09,57,16.90
2021,04,18,09,58,16.90
2021,04,18,09,59,16.90
2021,04,18,10,00,16.90
2021,04,18,10,01,17.00
2021,04,18,10,02,17.00
2021,04,18,10,03,17.10
2021,04,18,10,04,17.10
2021,04,18,10,05,17.10
2021,04,18,10,06,17.10
2021,04,18,10,07,17.20
2021,04,18,10,08,17.20
2021,04,18,10,09,17.30
2021,04,18,10,10,17.40
2021,04,18,10,11,17.40
2021,04,18,10,12,17.50
2021,04,18,10,13,17.50
2021,04,18,10,14,17.70
2021,04,18,10,15,17.70
2021,04,18,10,16,17.70
2021,04,18,10,17,17.80
2021,04,18,10,18,17.70
2021,04,18,10,19,17.70
2021,04,18,10,20,17.70
2021,04,18,10,21,17.70
2021,04,18,10,22,17.70
2021,04,18,10,23,17.80
2021,04,18,10,24,17.80
2021,04,18,10,25,17.80
2021,04,18,10,26,17.80
2021,04,18,10,27,17.80
2021,04,18,10,28,17.80
2021,04,18,10,29,17.80
2021,04,18,10,30,17.90
2021,04,18,10,31,17.90
2021,04,18,10,32,17.90
2021,04,18,10,33,17.80
2021,04,18,10,34,17.80
2021,04,18,10,35,17.80
2021,04,18,10,36,17.80
2021,04,18,10,37,17.80
2021,04,18,10,38,17.70
2021,04,18,10,39,17.70
2021,04,18,10,40,17.80
2021,04,18,10,41,17.80
2021,04,18,10,42,17.80
2021,04,18,10,43,17.90
2021,04,18,10,44,17.90
2021,04,18,10,45,17.90
2021,04,18,10,46,17.80
2021,04,18,10,47,17.80
2021,04,18,10,48,17.80
2021,04,18,10,49,17.90
2021,04,18,10,50,18.00
2021,04,18,10,51,18.00
2021,04,18,10,52,18.00
2021,04,18,10,53,18.10
2021,04,18,10,54,18.10
2021,04,18,10,55,18.00
2021,04,18,10,56,17.90
2021,04,18,10,57,18.00
2021,04,18,10,58,18.00
2021,04,18,10,59,18.10
2021,04,18,11,00,18.20
2021,04,18,11,01,18.20
2021,04,18,11,02,18.20
2021,04,18,11,03,18.20
2021,04,18,11,04,18.20
2021,04,18,11,05,18.20
2021,04,18,11,06,18.20
2021,04,18,11,07,18.30
2021,04,18,11,08,18.30
2021,04,18,11,09,18.40
2021,04,18,11,10,18.50
2021,04,18,11,11,18.60
2021,04,18,11,12,18.70
2021,04,18,11,13,18.70
2021,04,18,11,14,18.70
2021,04,18,11,15,18.80
2021,04,18,11,16,18.80
2021,04,18,11,17,18.80
2021,04,18,11,18,18.80
2021,04,18,11,19,18.90
2021,04,18,11,20,18.90
2021,04,18,11,21,18.90
2021,04,18,11,22,19.00
2021,04,18,11,23,19.00
2021,04,18,11,24,19.10
2021,04,18,11,25,19.10
2021,04,18,11,26,19.10
2021,04,18,11,27,19.10
2021,04,18,11,28,19.20
2021,04,18,11,29,19.20
2021,04,18,11,30,19.20
2021,04,18,11,31,19.30
2021,04,18,11,32,19.30
2021,04,18,11,33,19.30
2021,04,18,11,34,19.20
2021,04,18,11,35,19.10
2021,04,18,11,36,19.10
2021,04,18,11,37,19.00
2021,04,18,11,38,19.00
2021,04,18,11,39,19.00
2021,04,18,11,40,19.10
2021,04,18,11,41,19.20
2021,04,18,11,42,19.20
2021,04,18,11,43,19.30
2021,04,18,11,44,19.30
2021,04,18,11,45,19.30
2021,04,18,11,46,19.30
2021,04,18,11,47,19.30
2021,04,18,11,48,19.40
2021,04,18,11,49,19.40
2021,04,18,11,50,19.40
2021,04,18,11,51,19.30
2021,04,18,11,52,19.30
2021,04,18,11,53,19.30
2021,04,18,11,54,19.30
2021,04,18,11,55,19.30
2021,04,18,11,56,19.20
2021,04,18,11,57,19.20
2021,04,18,11,58,19.30
2021,04,18,11,59,19.30
2021,04,18,12,00,19.40
2021,04,18,12,01,19.50
2021,04,18,12,02,19.60
2021,04,18,12,03,19.70
2021,04,18,12,04,19.80
2021,04,18,12,05,19.90
2021,04,18,12,06,20.00
2021,04,18,12,07,20.10
2021,04,18,12,08,20.20
2021,04,18,12,09,20.20
2021,04,18,12,10,20.30
2021,04,18,12,11,20.30
2021,04,18,12,12,20.30
2021,04,18,12,13,20.30
2021,04,18,12,14,20.30
2021,04,18,12,15,20.30
2021,04,18,12,16,20.30
2021,04,18,12,17,20.30
2021,04,18,12,18,20.40
2021,04,18,12,19,20.40
2021,04,18,12,20,20.50
2021,04,18,12,21,20.50
2021,04,18,12,22,20.50
2021,04,18,12,23,20.40
2021,04,18,12,24,20.40
2021,04,18,12,25,20.40
2021,04,18,12,26,20.40
2021,04,18,12,27,20.30
2021,04,18,12,28,20.30
2021,04,18,12,29,20.20
2021,04,18,12,30,20.10
2021,04,18,12,31,20.10
2021,04,18,12,32,20.10
2021,04,18,12,33,20.10
2021,04,18,12,34,20.10
2021,04,18,12,35,20.00
2021,04,18,12,36,20.00
2021,04,18,12,37,20.00
2021,04,18,12,38,20.10
2021,04,18,12,39,20.10
2021,04,18,12,40,20.20
2021,04,18,12,41,20.20
2021,04,18,12,42,20.20
2021,04,18,12,43,20.20
2021,04,18,12,44,20.20
2021,04,18,12,45,20.20
2021,04,18,12,46,20.30
2021,04,18,12,47,20.30
2021,04,18,12,48,20.30
2021,04,18,12,49,20.30
2021,04,18,12,50,20.30
2021,04,18,12,51,20.30
2021,04,18,12,52,20.40
2021,04,18,12,53,20.50
2021,04,18,12,54,20.60
2021,04,18,12,55,20.70
2021,04,18,12,56,20.70
2021,04,18,12,57,20.80
2021,04,18,12,58,20.80
2021,04,18,12,59,20.80
2021,04,18,13,00,20.80
2021,04,18,13,01,20.80
2021,04,18,13,02,20.80
2021,04,18,13,03,20.80
2021,04,18,13,04,20.90
2021,04,18,13,05,20.90
2021,04,18,13,06,21.00
2021,04,18,13,07,21.00
2021,04,18,13,08,21.00
2021,04,18,13,09,20.90
2021,04,18,13,10,20.80
2021,04,18,13,11,20.80
2021,04,18,13,12,20.80
2021,04,18,13,13,20.80
2021,04,18,13,14,20.90
2021,04,18,13,15,20.90
2021,04,18,13,16,21.00
2021,04,18,13,17,21.00
2021,04,18,13,18,21.00
2021,04,18,13,19,20.90
2021,04,18,13,20,20.90
2021,04,18,13,21,20.80
2021,04,18,13,22,20.80
2021,04,18,13,23,20.70
2021,04,18,13,24,20.50
2021,04,18,13,25,20.50
2021,04,18,13,26,20.50
2021,04,18,13,27,20.60
2021,04,18,13,28,20.60
2021,04,18,13,29,20.60
2021,04,18,13,30,20.50
2021,04,18,13,31,20.50
2021,04,18,13,32,20.40
2021,04,18,13,33,20.40
2021,04,18,13,34,20.40
2021,04,18,13,35,20.40
2021,04,18,13,36,20.50
2021,04,18,13,37,20.60
2021,04,18,13,38,20.70
2021,04,18,13,39,20.60
2021,04,18,13,40,20.70
2021,04,18,13,41,20.70
2021,04,18,13,42,20.80
2021,04,18,13,43,20.90
2021,04,18,13,44,21.00
2021,04,18,13,45,21.10
2021,04,18,13,46,21.00
2021,04,18,13,47,21.10
2021,04,18,13,48,21.10
2021,04,18,13,49,21.10
2021,04,18,13,50,21.10
2021,04,18,13,51,21.10
2021,04,18,13,52,21.10
2021,04,18,13,53,21.10
2021,04,18,13,54,21.10
2021,04,18,13,55,21.10
2021,04,18,13,56,21.10
2021,04,18,13,57,21.10
2021,04,18,13,58,21.20
2021,04,18,13,59,21.30
2021,04,18,14,00,21.30
2021,04,18,14,01,21.30
2021,04,18,14,02,21.30
2021,04,18,14,03,21.20
2021,04,18,14,04,21.20
2021,04,18,14,05,21.20
2021,04,18,14,06,21.20
2021,04,18,14,07,21.10
2021,04,18,14,08,21.20
2021,04,18,14,09,21.20
2021,04,18,14,10,21.20
2021,04,18,14,11,21.20
2021,04,18,14,12,21.20
2021,04,18,14,13,21.30
2021,04,18,14,14,21.30
2021,04,18,14,15,21.40
2021,04,18,14,16,21.50
2021,04,18,14,17,21.50
2021,04,18,14,18,21.50
2021,04,18,14,19,21.40
2021,04,18,14,20,21.40
2021,04,18,14,21,21.40
2021,04,18,14,22,21.50
2021,04,18,14,23,21.50
2021,04,18,14,24,21.60
2021,04,18,14,25,21.70
2021,04,18,14,26,21.70
2021,04,18,14,27,21.70
2021,04,18,14,28,21.80
2021,04,18,14,29,21.70
2021,04,18,14,30,21.70
2021,04,18,14,31,21.80
2021,04,18,14,32,21.80
2021,04,18,14,33,21.80
2021,04,18,14,34,21.80
2021,04,18,14,35,21.90
2021,04,18,14,36,21.90
2021,04,18,14,37,21.90
2021,04,18,14,38,21.80
2021,04,18,14,39,21.80
2021,04,18,14,40,21.90
2021,04,18,14,41,21.90
2021,04,18,14,42,22.00
2021,04,18,14,43,22.00
2021,04,18,14,44,22.00
2021,04,18,14,45,22.10
2021,04,18,14,46,22.20
2021,04,18,14,47,22.40
2021,04,18,14,48,22.40
2021,04,18,14,49,22.50
2021,04,18,14,50,22.50
2021,04,18,14,51,22.60
2021,04,18,14,52,22.70
2021,04,18,14,53,22.70
2021,04,18,14,54,22.70
2021,04,18,14,55,22.70
2021,04,18,14,56,22.70
2021,04,18,14,57,22.70
2021,04,18,14,58,22.70
2021,04,18,14,59,22.70
2021,04,18,15,00,22.70
2021,04,18,15,01,22.70
2021,04,18,15,02,22.80
2021,04,18,15,03,22.80
2021,04,18,15,04,22.80
2021,04,18,15,05,22.80
2021,04,18,15,06,22.80
2021,04,18,15,07,22.90
2021,04,18,15,08,22.80
2021,04,18,15,09,22.80
2021,04,18,15,10,22.70
2021,04,18,15,11,22.70
2021,04,18,15,12,22.60
2021,04,18,15,13,22.60
2021,04,18,15,14,22.60
2021,04,18,15,15,22.70
2021,04,18,15,16,22.70
2021,04,18,15,17,22.70
2021,04,18,15,18,22.70
2021,04,18,15,19,22.70
2021,04,18,15,20,22.70
2021,04,18,15,21,22.70
2021,04,18,15,22,22.70
2021,04,18,15,23,22.60
2021,04,18,15,24,22.70
2021,04,18,15,25,22.70
2021,04,18,15,26,22.80
2021,04,18,15,27,22.90
2021,04,18,15,28,23.00
2021,04,18,15,29,23.20
2021,04,18,15,30,23.30
2021,04,18,15,31,23.30
2021,04,18,15,32,23.30
2021,04,18,15,33,23.20
2021,04,18,15,34,23.20
2021,04,18,15,35,23.20
2021,04,18,15,36,23.20
2021,04,18,15,37,23.20
2021,04,18,15,38,23.20
2021,04,18,15,39,23.30
2021,04,18,15,40,23.30
2021,04,18,15,41,23.40
2021,04,18,15,42,23.40
2021,04,18,15,43,23.40
2021,04,18,15,44,23.50
2021,04,18,15,45,23.50
2021,04,18,15,46,23.60
2021,04,18,15,47,23.60
2021,04,18,15,48,23.60
2021,04,18,15,49,23.60
2021,04,18,15,50,23.60
2021,04,18,15,51,23.60
2021,04,18,15,52,23.50
2021,04,18,15,53,23.40
2021,04,18,15,54,23.40
2021,04,18,15,55,23.50
2021,04,18,15,56,23.50
2021,04,18,15,57,23.50
2021,04,18,15,58,23.60
2021,04,18,15,59,23.60
2021,04,18,16,00,23.60
2021,04,18,16,01,23.60
2021,04,18,16,02,23.60
2021,04,18,16,03,23.60
2021,04,18,16,04,23.60
2021,04,18,16,05,23.70
2021,04,18,16,06,23.70
2021,04,18,16,07,23.60
2021,04,18,16,08,23.60
2021,04,18,16,09,23.50
2021,04,18,16,10,23.40
2021,04,18,16,11,23.40
2021,04,18,16,12,23.40
2021,04,18,16,13,23.40
2021,04,18,16,14,23.40
2021,04,18,16,15,23.50
2021,04,18,16,16,23.50
2021,04,18,16,17,23.60
2021,04,18,16,18,23.60
2021,04,18,16,19,23.60
2021,04,18,16,20,23.60
2021,04,18,16,21,23.60
2021,04,18,16,22,23.60
2021,04,18,16,23,23.60
2021,04,18,16,24,23.60
2021,04,18,16,25,23.60
2021,04,18,16,26,23.60
2021,04,18,16,27,23.70
2021,04,18,16,28,23.70
2021,04,18,16,29,23.70
2021,04,18,16,30,23.70
2021,04,18,16,31,23.70
2021,04,18,16,32,23.70
2021,04,18,16,33,23.70
2021,04,18,16,34,23.70
2021,04,18,16,35,23.70
2021,04,18,16,36,23.70
2021,04,18,16,37,23.70
2021,04,18,16,38,23.80
2021,04,18,16,39,23.80
2021,04,18,16,40,23.80
2021,04,18,16,41,23.80
2021,04,18,16,42,23.80
2021,04,18,16,43,23.80
2021,04,18,16,44,23.90
2021,04,18,16,45,23.90
2021,04,18,16,46,24.00
2021,04,18,16,47,24.10
2021,04,18,16,48,24.10
2021,04,18,16,49,24.10
2021,04,18,16,50,24.10
2021,04,18,16,51,24.10
2021,04,18,16,52,24.10
2021,04,18,16,53,24.10
2021,04,18,16,54,24.20
2021,04,18,16,55,24.20
2021,04,18,16,56,24.20
2021,04,18,16,57,24.20
2021,04,18,16,58,24.20
2021,04,18,16,59,24.20
2021,04,18,17,00,24.10
2021,04,18,17,01,24.10
2021,04,18,17,02,24.10
2021,04,18,17,03,24.00
2021,04,18,17,04,24.00
2021,04,18,17,05,24.00
2021,04,18,17,06,24.10
2021,04,18,17,07,24.10
2021,04,18,17,08,24.20
2021,04,18,17,09,24.20
2021,04,18,17,10,24.30
2021,04,18,17,11,24.30
2021,04,18,17,12,24.20
2021,04,18,17,13,24.20
2021,04,18,17,14,24.20
2021,04,18,17,15,24.20
2021,04,18,17,16,24.20
2021,04,18,17,17,24.10
2021,04,18,17,18,24.10
2021,04,18,17,19,24.10
2021,04,18,17,20,24.10
2021,04,18,17,21,24.10
2021,04,18,17,22,24.10
2021,04,18,17,23,24.10
2021,04,18,17,24,24.10
2021,04,18,17,25,24.10
2021,04,18,17,26,24.10
2021,04,18,17,27,24.10
2021,04,18,17,28,24.10
2021,04,18,17,29,24.10
2021,04,18,17,30,24.10
2021,04,18,17,31,24.10
2021,04,18,17,32,24.10
2021,04,18,17,33,24.10